Weather in Tyuli

Russia / Khanty-Mansi Autonomous Okrug — Yugra     60°44′29″N   69°39′00″E
temp.,
°C
wind,
m/s
gust,
m/s
humid.,
%
clouds,
%
prec.,
mm/h
press.,
hPa
HPBL,
m
23 january, sat
sat2323:00−40n459571 0.0 102559
02:00−40n459410 0.0 102845
05:00−41n44955 0.0 103030
08:00−41n349781 0.0 103325
11:00−40n349426 0.0 1034112
14:00−38nnw349440 0.0 1035161
17:00−40nnw339638 0.0 103718
20:00−41nw239730 0.0 103718
24 january, sun
sun2423:00−41nw239729 0.0 103918
02:00−44n229746 0.0 103918
05:00−44n229847 0.0 104018
08:00−43wsw1110025 0.0 104118
11:00−39s229425 0.0 104229
14:00−37s239473 0.0 1041100
17:00−43ene119917 0.0 104418
20:00−34se4694100 0.0 1039139
25 january, mon
mon2523:00−32se5793100 0.0 1038216
02:00−31se5895100 0.0 1036253
05:00−36se3589100 0.0 1044100
08:00−29se4798100 0.3 1034302
11:00−35se468886 0.0 1043172
14:00−32se468592 0.0 1043237
17:00−27se3596100 0.3 1033208
20:00−26sse4698100 0.2 1032272
26 january, tue
tue2623:00−26sse4698100 0.4 1030236
02:00−25sse4698100 0.3 1029249
05:00−24se5798100 0.9 1027251
08:00−24sse5898100 0.7 1025300
11:00−22sse5798100 1.4 1023262
14:00−19sse5797100 0.7 1021262
17:00−17sse4797100 1.8 1018216
20:00−14sse3496100 1.4 1016110
27 january, wed
wed2723:00−11w2396100 1.9 1014101
02:00−10nw239694 0.6 101574
05:00−9nw359697 1.8 1015171
08:00−21n5895100 0.4 1021470
11:00−16ssw71095100 0.5 1022319
14:00−17nne459399 0.1 1022312
17:00−35n45931 0.0 103255
20:00−26ne5793100 0.0 1027226